When you browse on this site, cookies collect data to enhance your experience and personalize the content and advertising you see.
Visit our Privacy Policy to learn more. By continuing to use the site, you agree to this use of cookies and data.
  • In Czech Republic
  • List of Countries
  • For 7 days
  • Water Temperature
  • Weather Map
  • Weather Widgets
  • user-avatar
    Login

    Hourly Weather Maracay

    Today, 19 February, Wednesday

    Time Temperature Precipitation Wind Pressure Humidity
    00:00 +24°C° 0 mm 1 mps 711 mmHg 91%
    01:00 +24°C° 0 mm 1 mps 711 mmHg 91%
    02:00 +23°C° 0 mm 1 mps 710 mmHg 91%
    03:00 +23°C° 0 mm 1 mps 710 mmHg 91%
    04:00 +23°C° 0 mm 1 mps 710 mmHg 91%
    05:00 +23°C° 0 mm 1 mps 711 mmHg 89%
    06:00 +24°C° 0 mm 1 mps 711 mmHg 87%
    07:00 +24°C° 0 mm 1 mps 712 mmHg 84%
    08:00 +26°C° 0 mm 1 mps 712 mmHg 76%
    09:00 +28°C° 0 mm 1 mps 713 mmHg 68%
    10:00 +30°C° 0 mm 2 mps 713 mmHg 59%
    11:00 +31°C° 0.2 mm 2 mps 713 mmHg 58%
    12:00 +31°C° 0.2 mm 2 mps 712 mmHg 56%
    13:00 +31°C° 0.2 mm 2 mps 711 mmHg 55%
    14:00 +31°C° 0.2 mm 2 mps 710 mmHg 59%
    15:00 +30°C° 0.2 mm 3 mps 710 mmHg 63%
    16:00 +29°C° 0.2 mm 3 mps 709 mmHg 67%
    17:00 +27°C° 0.1 mm 3 mps 709 mmHg 74%
    18:00 +26°C° 0.1 mm 3 mps 710 mmHg 80%
    19:00 +25°C° 0.1 mm 2 mps 710 mmHg 86%
    20:00 +24°C° 0 mm 2 mps 710 mmHg 87%
    21:00 +24°C° 0 mm 2 mps 711 mmHg 88%
    22:00 +24°C° 0 mm 2 mps 712 mmHg 90%
    23:00 +24°C° 0 mm 1 mps 711 mmHg 90%

    Tomorrow, 20 February, Thursday

    Time Temperature Precipitation Wind Pressure Humidity
    00:00 +24°C° 0 mm 1 mps 711 mmHg 90%
    01:00 +23°C° 0 mm 1 mps 710 mmHg 90%
    02:00 +23°C° 0 mm 1 mps 710 mmHg 90%
    03:00 +23°C° 0 mm 1 mps 710 mmHg 91%
    04:00 +23°C° 0 mm 1 mps 710 mmHg 91%
    05:00 +23°C° 0 mm 1 mps 711 mmHg 89%
    06:00 +24°C° 0 mm 1 mps 711 mmHg 86%
    07:00 +24°C° 0 mm 1 mps 711 mmHg 83%
    08:00 +26°C° 0 mm 1 mps 712 mmHg 75%
    09:00 +28°C° 0 mm 1 mps 713 mmHg 66%
    10:00 +30°C° 0 mm 2 mps 713 mmHg 57%
    11:00 +31°C° 0.2 mm 2 mps 712 mmHg 54%
    12:00 +31°C° 0.2 mm 2 mps 711 mmHg 52%
    13:00 +32°C° 0.2 mm 2 mps 710 mmHg 49%
    14:00 +31°C° 0.1 mm 2 mps 710 mmHg 53%
    15:00 +30°C° 0.1 mm 3 mps 710 mmHg 58%
    16:00 +29°C° 0.1 mm 3 mps 709 mmHg 62%
    17:00 +28°C° 0 mm 3 mps 709 mmHg 70%
    18:00 +26°C° 0 mm 3 mps 709 mmHg 77%
    19:00 +25°C° 0 mm 2 mps 710 mmHg 84%
    20:00 +24°C° 0 mm 2 mps 710 mmHg 86%
    21:00 +24°C° 0 mm 2 mps 710 mmHg 87%
    22:00 +24°C° 0 mm 2 mps 711 mmHg 88%
    23:00 +23°C° 0 mm 2 mps 710 mmHg 88%

    Day after tomorrow, 21 February, Friday

    Time Temperature Precipitation Wind Pressure Humidity
    00:00 +23°C° 0 mm 2 mps 710 mmHg 88%
    01:00 +23°C° 0 mm 1 mps 710 mmHg 88%
    08:00 +25°C° 0 mm 1 mps 712 mmHg 72%
    09:00 +28°C° 0 mm 1 mps 713 mmHg 63%
    10:00 +30°C° 0 mm 1 mps 713 mmHg 54%
    11:00 +30°C° 0 mm 1 mps 712 mmHg 52%
    12:00 +31°C° 0 mm 2 mps 711 mmHg 50%
    13:00 +31°C° 0 mm 2 mps 711 mmHg 47%
    14:00 +31°C° 0 mm 2 mps 710 mmHg 51%
    15:00 +30°C° 0 mm 3 mps 709 mmHg 54%
    16:00 +29°C° 0 mm 3 mps 709 mmHg 57%
    17:00 +27°C° 0 mm 3 mps 709 mmHg 66%
    18:00 +26°C° 0 mm 3 mps 709 mmHg 74%
    19:00 +24°C° 0 mm 2 mps 710 mmHg 82%
    20:00 +23°C° 0 mm 2 mps 710 mmHg 84%
    21:00 +23°C° 0 mm 2 mps 710 mmHg 86%
    22:00 +23°C° 0 mm 2 mps 711 mmHg 88%
    23:00 +21°C° 0 mm 2 mps 710 mmHg 88%

    22 February, Saturday

    Time Temperature Precipitation Wind Pressure Humidity
    00:00 +22°C° 0 mm 1 mps 710 mmHg 88%
    01:00 +22°C° 0 mm 1 mps 710 mmHg 88%
    02:00 +22°C° 0 mm 1 mps 710 mmHg 88%
    03:00 +22°C° 0 mm 1 mps 710 mmHg 87%
    04:00 +22°C° 0 mm 1 mps 710 mmHg 87%
    05:00 +22°C° 0 mm 1 mps 711 mmHg 84%
    06:00 +22°C° 0 mm 1 mps 711 mmHg 82%
    07:00 +23°C° 0 mm 1 mps 712 mmHg 80%
    08:00 +25°C° 0 mm 1 mps 712 mmHg 71%
    09:00 +28°C° 0 mm 1 mps 713 mmHg 61%
    10:00 +30°C° 0 mm 1 mps 713 mmHg 52%
    11:00 +30°C° 0 mm 1 mps 712 mmHg 51%
    12:00 +31°C° 0 mm 2 mps 711 mmHg 49%
    13:00 +31°C° 0 mm 2 mps 710 mmHg 47%
    14:00 +31°C° 0 mm 2 mps 710 mmHg 50%
    15:00 +30°C° 0 mm 3 mps 709 mmHg 52%
    16:00 +30°C° 0 mm 3 mps 709 mmHg 54%
    17:00 +28°C° 0 mm 3 mps 709 mmHg 63%
    18:00 +25°C° 0 mm 3 mps 709 mmHg 72%
    19:00 +23°C° 0 mm 2 mps 709 mmHg 81%
    20:00 +23°C° 0 mm 2 mps 710 mmHg 82%
    21:00 +23°C° 0 mm 2 mps 710 mmHg 83%
    22:00 +21°C° 0 mm 2 mps 711 mmHg 84%
    23:00 +21°C° 0 mm 2 mps 710 mmHg 84%

    23 February, Sunday

    Time Temperature Precipitation Wind Pressure Humidity
    00:00 +21°C° 0 mm 2 mps 710 mmHg 84%
    01:00 +20°C° 0 mm 2 mps 710 mmHg 84%
    02:00 +21°C° 0 mm 1 mps 710 mmHg 83%
    03:00 +21°C° 0 mm 1 mps 710 mmHg 82%
    04:00 +21°C° 0 mm 1 mps 710 mmHg 82%
    05:00 +21°C° 0 mm 1 mps 711 mmHg 79%
    06:00 +22°C° 0 mm 1 mps 711 mmHg 76%
    07:00 +22°C° 0 mm 1 mps 712 mmHg 74%
    08:00 +25°C° 0 mm 1 mps 712 mmHg 64%
    09:00 +28°C° 0 mm 1 mps 713 mmHg 54%
    10:00 +30°C° 0 mm 1 mps 713 mmHg 45%
    11:00 +31°C° 0 mm 1 mps 712 mmHg 44%
    12:00 +31°C° 0 mm 2 mps 711 mmHg 44%
    13:00 +31°C° 0 mm 2 mps 711 mmHg 43%
    14:00 +31°C° 0 mm 2 mps 710 mmHg 47%
    15:00 +30°C° 0 mm 2 mps 710 mmHg 51%
    16:00 +30°C° 0 mm 3 mps 709 mmHg 55%
    17:00 +28°C° 0 mm 2 mps 709 mmHg 63%
    18:00 +26°C° 0 mm 2 mps 709 mmHg 71%
    19:00 +24°C° 0 mm 2 mps 710 mmHg 79%
    20:00 +24°C° 0 mm 2 mps 710 mmHg 80%
    21:00 +23°C° 0 mm 2 mps 710 mmHg 81%
    22:00 +23°C° 0 mm 1 mps 711 mmHg 83%
    23:00 +23°C° 0 mm 1 mps 711 mmHg 83%

    24 February, Monday

    Time Temperature Precipitation Wind Pressure Humidity
    00:00 +22°C° 0 mm 1 mps 710 mmHg 84%
    01:00 +22°C° 0 mm 1 mps 710 mmHg 85%
    02:00 +21°C° 0 mm 2 mps 710 mmHg 85%
    03:00 +21°C° 0 mm 2 mps 710 mmHg 86%
    04:00 +21°C° 0 mm 2 mps 710 mmHg 86%
    05:00 +22°C° 0 mm 1 mps 710 mmHg 84%
    06:00 +23°C° 0 mm 1 mps 711 mmHg 82%
    07:00 +23°C° 0 mm 1 mps 712 mmHg 80%
    08:00 +26°C° 0 mm 1 mps 712 mmHg 71%
    09:00 +28°C° 0 mm 1 mps 713 mmHg 62%
    10:00 +31°C° 0 mm 1 mps 713 mmHg 54%
    11:00 +31°C° 0.1 mm 1 mps 712 mmHg 53%
    12:00 +31°C° 0.1 mm 2 mps 711 mmHg 53%
    13:00 +31°C° 0.1 mm 2 mps 710 mmHg 52%
    14:00 +30°C° 0.1 mm 2 mps 710 mmHg 55%
    15:00 +30°C° 0.1 mm 2 mps 710 mmHg 58%
    16:00 +29°C° 0.1 mm 2 mps 709 mmHg 60%
    17:00 +28°C° 0 mm 2 mps 709 mmHg 68%
    18:00 +26°C° 0 mm 2 mps 710 mmHg 76%
    19:00 +25°C° 0 mm 2 mps 710 mmHg 84%
    20:00 +24°C° 0 mm 2 mps 710 mmHg 85%
    21:00 +24°C° 0 mm 2 mps 711 mmHg 87%
    22:00 +24°C° 0 mm 2 mps 711 mmHg 89%
    23:00 +24°C° 0.1 mm 2 mps 711 mmHg 90%
    Show more